User: anonymous   Login
Location: Unspecified
(0.0000°N, 0.0000°E)
Time: 04:04:18
(UTC+00:00)
Language:

ITUPSAT 1 - Orbit

View from above orbital plane
View from above orbital plane
View from above satellite
View from above satellite

Ground track
Ground track

The orbit data is extracted from the following two-line orbital elements,

1 35935U 09051E   18022.35894020 +.00000101 +00000-0 +34370-4 0  9997
2 35935 098.5378 171.9100 0007224 310.3573 049.6992 14.55404623442084
Epoch (UTC): 22 January 2018 08:36:52
Eccentricity: 0.0007224
inclination: 98.5378°
perigee height: 703 km
apogee height: 713 km
right ascension of ascending node: 171.9100°
argument of perigee: 310.3573°
revolutions per day: 14.55404623
mean anomaly at epoch: 49.6992°
orbit number at epoch: 44208

The dashed part of the orbit path shows where the satellite is in the earth's shadow,  

DLR